Time,TemperatureF,DewpointF,PressureIn,WindDirection,WindDirectionDegrees,WindSpeedMPH,WindSpeedGustMPH,Humidity,HourlyPrecipIn,Conditions,Clouds,dailyrainin,SoftwareType,DateUTC
2013-02-28 00:01:00,15.0,2.0,-100.00,NNW,344,15.0,17.0,55,-99.99,,,-99.99,,2013-02-28 07:01:00,
2013-02-28 00:11:00,15.0,2.0,-100.00,NNW,344,15.0,17.0,55,-99.99,,,-99.99,,2013-02-28 07:11:00,
2013-02-28 00:21:00,16.0,3.0,-100.00,NNW,340,14.0,17.0,55,-99.99,,,-99.99,,2013-02-28 07:21:00,
2013-02-28 00:31:00,16.0,3.0,-100.00,NNW,342,13.0,16.0,55,-99.99,,,-99.99,,2013-02-28 07:31:00,
2013-02-28 00:41:00,16.0,3.0,-100.00,NNW,342,13.0,16.0,55,-99.99,,,-99.99,,2013-02-28 07:41:00,
2013-02-28 00:52:00,16.0,3.0,-100.00,NNW,335,14.0,17.0,55,-99.99,,,-99.99,,2013-02-28 07:52:00,
2013-02-28 01:01:00,16.0,2.0,-100.00,NNW,337,13.0,15.0,54,-99.99,,,-99.99,,2013-02-28 08:01:00,
2013-02-28 01:11:00,16.0,2.0,-100.00,NNW,337,13.0,15.0,54,-99.99,,,-99.99,,2013-02-28 08:11:00,
2013-02-28 01:21:00,16.0,2.0,-100.00,NNW,339,11.0,14.0,54,-99.99,,,-99.99,,2013-02-28 08:21:00,
2013-02-28 01:32:00,16.0,3.0,-100.00,NNW,334,12.0,17.0,55,-99.99,,,-99.99,,2013-02-28 08:32:00,
2013-02-28 01:42:00,16.0,3.0,-100.00,NNW,334,12.0,17.0,55,-99.99,,,-99.99,,2013-02-28 08:42:00,
2013-02-28 01:53:00,16.0,3.0,-100.00,NNW,329,13.0,20.0,56,-99.99,,,-99.99,,2013-02-28 08:53:00,
2013-02-28 02:03:00,17.0,4.0,-100.00,NNW,331,11.0,21.0,56,-99.99,,,-99.99,,2013-02-28 09:03:00,
2013-02-28 02:11:00,17.0,4.0,-100.00,NNW,331,11.0,21.0,56,-99.99,,,-99.99,,2013-02-28 09:11:00,
2013-02-28 02:21:00,16.0,3.0,-100.00,NW,318,9.0,15.0,57,-99.99,,,-99.99,,2013-02-28 09:21:00,
2013-02-28 02:31:00,16.0,3.0,-100.00,NW,316,10.0,13.0,56,-99.99,,,-99.99,,2013-02-28 09:31:00,
2013-02-28 02:41:00,16.0,3.0,-100.00,NW,316,10.0,13.0,56,-99.99,,,-99.99,,2013-02-28 09:41:00,
2013-02-28 02:52:00,16.0,3.0,-100.00,NW,308,10.0,14.0,57,-99.99,,,-99.99,,2013-02-28 09:52:00,
2013-02-28 03:01:00,16.0,4.0,-100.00,NW,313,11.0,16.0,58,-99.99,,,-99.99,,2013-02-28 10:01:00,
2013-02-28 03:11:00,16.0,4.0,-100.00,NW,313,11.0,16.0,58,-99.99,,,-99.99,,2013-02-28 10:11:00,
2013-02-28 03:21:00,17.0,5.0,-100.00,NW,317,14.0,18.0,58,-99.99,,,-99.99,,2013-02-28 10:21:00,
2013-02-28 03:31:00,17.0,4.0,-100.00,NW,315,12.0,20.0,57,-99.99,,,-99.99,,2013-02-28 10:31:00,
2013-02-28 03:42:00,17.0,4.0,-100.00,NW,315,12.0,20.0,57,-99.99,,,-99.99,,2013-02-28 10:42:00,
2013-02-28 03:52:00,17.0,4.0,-100.00,NW,316,10.0,17.0,57,-99.99,,,-99.99,,2013-02-28 10:52:00,
2013-02-28 04:01:00,17.0,4.0,-100.00,NW,309,8.0,17.0,57,-99.99,,,-99.99,,2013-02-28 11:01:00,
2013-02-28 04:11:00,17.0,4.0,-100.00,NW,309,8.0,17.0,57,-99.99,,,-99.99,,2013-02-28 11:11:00,
2013-02-28 04:21:00,17.0,4.0,-100.00,NW,324,11.0,17.0,56,-99.99,,,-99.99,,2013-02-28 11:21:00,
2013-02-28 04:32:00,17.0,4.0,-100.00,NW,323,10.0,14.0,56,-99.99,,,-99.99,,2013-02-28 11:32:00,
2013-02-28 04:42:00,17.0,4.0,-100.00,NW,323,10.0,14.0,56,-99.99,,,-99.99,,2013-02-28 11:42:00,
2013-02-28 04:52:00,17.0,4.0,-100.00,NNW,332,10.0,13.0,56,-99.99,,,-99.99,,2013-02-28 11:52:00,
2013-02-28 05:01:00,16.0,3.0,-100.00,NNW,335,12.0,14.0,57,-99.99,,,-99.99,,2013-02-28 12:01:00,
2013-02-28 05:11:00,16.0,3.0,-100.00,NNW,335,12.0,14.0,57,-99.99,,,-99.99,,2013-02-28 12:11:00,
2013-02-28 05:21:00,16.0,3.0,-100.00,NNW,332,12.0,17.0,57,-99.99,,,-99.99,,2013-02-28 12:21:00,
2013-02-28 05:32:00,16.0,3.0,-100.00,NW,324,10.0,15.0,57,-99.99,,,-99.99,,2013-02-28 12:32:00,
2013-02-28 05:42:00,16.0,3.0,-100.00,NW,324,10.0,15.0,57,-99.99,,,-99.99,,2013-02-28 12:42:00,
2013-02-28 05:52:00,17.0,4.0,-100.00,NW,318,11.0,17.0,57,-99.99,,,-99.99,,2013-02-28 12:52:00,
2013-02-28 06:01:00,16.0,4.0,-100.00,NW,320,12.0,19.0,58,-99.99,,,-99.99,,2013-02-28 13:01:00,
2013-02-28 06:11:00,16.0,4.0,-100.00,NW,320,12.0,19.0,58,-99.99,,,-99.99,,2013-02-28 13:11:00,
2013-02-28 06:21:00,16.0,4.0,-100.00,NW,316,11.0,16.0,58,-99.99,,,-99.99,,2013-02-28 13:21:00,
2013-02-28 06:32:00,16.0,4.0,-100.00,NW,306,11.0,17.0,58,-99.99,,,-99.99,,2013-02-28 13:32:00,
2013-02-28 06:42:00,16.0,4.0,-100.00,NW,306,11.0,17.0,58,-99.99,,,-99.99,,2013-02-28 13:42:00,
2013-02-28 06:52:00,16.0,4.0,-100.00,NW,308,11.0,17.0,59,-99.99,,,-99.99,,2013-02-28 13:52:00,
2013-02-28 07:01:00,16.0,4.0,-100.00,NW,322,10.0,13.0,58,-99.99,,,-99.99,,2013-02-28 14:01:00,
2013-02-28 07:11:00,16.0,4.0,-100.00,NW,322,10.0,13.0,58,-99.99,,,-99.99,,2013-02-28 14:11:00,
2013-02-28 07:21:00,16.0,5.0,-100.00,NNW,332,13.0,20.0,60,-99.99,,,-99.99,,2013-02-28 14:21:00,
2013-02-28 07:31:00,16.0,5.0,-100.00,NNW,335,10.0,16.0,62,-99.99,,,-99.99,,2013-02-28 14:31:00,
2013-02-28 07:42:00,16.0,5.0,-100.00,NNW,335,10.0,16.0,62,-99.99,,,-99.99,,2013-02-28 14:42:00,
2013-02-28 07:52:00,15.0,5.0,-100.00,North,351,8.0,12.0,63,-99.99,,,-99.99,,2013-02-28 14:52:00,
2013-02-28 08:02:00,15.0,5.0,-100.00,North,349,7.0,12.0,63,-99.99,,,-99.99,,2013-02-28 15:02:00,
2013-02-28 08:11:00,15.0,5.0,-100.00,North,349,7.0,12.0,63,-99.99,,,-99.99,,2013-02-28 15:11:00,
2013-02-28 08:21:00,16.0,6.0,-100.00,NW,312,7.0,11.0,64,-99.99,,,-99.99,,2013-02-28 15:21:00,
2013-02-28 08:32:00,17.0,6.0,-100.00,NW,305,10.0,16.0,62,-99.99,,,-99.99,,2013-02-28 15:32:00,
2013-02-28 08:41:00,17.0,6.0,-100.00,NW,305,10.0,16.0,62,-99.99,,,-99.99,,2013-02-28 15:41:00,
2013-02-28 08:52:00,17.0,7.0,-100.00,NW,325,11.0,16.0,63,-99.99,,,-99.99,,2013-02-28 15:52:00,
2013-02-28 09:01:00,17.0,7.0,-100.00,NNW,335,9.0,14.0,64,-99.99,,,-99.99,,2013-02-28 16:01:00,
2013-02-28 09:11:00,17.0,7.0,-100.00,NNW,335,9.0,14.0,64,-99.99,,,-99.99,,2013-02-28 16:11:00,
2013-02-28 09:21:00,18.0,8.0,-100.00,NW,315,10.0,16.0,65,-99.99,,,-99.99,,2013-02-28 16:21:00,
2013-02-28 09:32:00,20.0,9.0,-100.00,NW,319,12.0,21.0,63,-99.99,,,-99.99,,2013-02-28 16:32:00,
2013-02-28 09:42:00,20.0,9.0,-100.00,NW,319,12.0,21.0,63,-99.99,,,-99.99,,2013-02-28 16:42:00,
2013-02-28 09:52:00,20.0,9.0,-100.00,NNW,331,13.0,18.0,61,-99.99,,,-99.99,,2013-02-28 16:52:00,
2013-02-28 10:01:00,20.0,8.0,-100.00,NNW,341,11.0,15.0,60,-99.99,,,-99.99,,2013-02-28 17:01:00,
2013-02-28 10:11:00,20.0,8.0,-100.00,NNW,341,11.0,15.0,60,-99.99,,,-99.99,,2013-02-28 17:11:00,
2013-02-28 10:21:00,20.0,9.0,-100.00,NNW,344,13.0,18.0,63,-99.99,,,-99.99,,2013-02-28 17:21:00,
2013-02-28 10:32:00,20.0,9.0,-100.00,NNW,347,9.0,14.0,63,-99.99,,,-99.99,,2013-02-28 17:32:00,
2013-02-28 10:41:00,20.0,9.0,-100.00,NNW,347,9.0,14.0,63,-99.99,,,-99.99,,2013-02-28 17:41:00,
2013-02-28 10:52:00,20.0,10.0,-100.00,NNW,345,9.0,17.0,65,-99.99,,,-99.99,,2013-02-28 17:52:00,
2013-02-28 11:01:00,21.0,11.0,-100.00,NNW,342,8.0,14.0,64,-99.99,,,-99.99,,2013-02-28 18:01:00,
2013-02-28 11:11:00,21.0,11.0,-100.00,NNW,342,8.0,14.0,64,-99.99,,,-99.99,,2013-02-28 18:11:00,
2013-02-28 11:21:00,21.0,11.0,-100.00,North,0,5.0,9.0,64,-99.99,,,-99.99,,2013-02-28 18:21:00,
2013-02-28 11:32:00,22.0,12.0,-100.00,NNW,332,7.0,16.0,65,-99.99,,,-99.99,,2013-02-28 18:32:00,
2013-02-28 11:42:00,22.0,12.0,-100.00,NNW,332,7.0,16.0,65,-99.99,,,-99.99,,2013-02-28 18:42:00,
2013-02-28 11:52:00,22.0,13.0,-100.00,NW,326,11.0,18.0,68,-99.99,,,-99.99,,2013-02-28 18:52:00,
2013-02-28 12:01:00,23.0,14.0,-100.00,NW,325,13.0,20.0,69,-99.99,,,-99.99,,2013-02-28 19:01:00,
2013-02-28 12:11:00,23.0,14.0,-100.00,NW,325,13.0,20.0,69,-99.99,,,-99.99,,2013-02-28 19:11:00,
2013-02-28 12:21:00,23.0,15.0,-100.00,NNW,339,11.0,20.0,70,-99.99,,,-99.99,,2013-02-28 19:21:00,
2013-02-28 12:31:00,23.0,14.0,-100.00,North,355,5.0,9.0,67,-99.99,,,-99.99,,2013-02-28 19:31:00,
2013-02-28 12:41:00,23.0,14.0,-100.00,North,355,5.0,9.0,67,-99.99,,,-99.99,,2013-02-28 19:41:00,
2013-02-28 12:52:00,27.0,14.0,-100.00,NE,41,2.0,7.0,58,-99.99,,,-99.99,,2013-02-28 19:52:00,
2013-02-28 13:01:00,25.0,14.0,-100.00,North,3,6.0,10.0,63,-99.99,,,-99.99,,2013-02-28 20:01:00,
2013-02-28 13:11:00,25.0,14.0,-100.00,North,3,6.0,10.0,63,-99.99,,,-99.99,,2013-02-28 20:11:00,
2013-02-28 13:21:00,23.0,13.0,-100.00,North,11,6.0,12.0,66,-99.99,,,-99.99,,2013-02-28 20:21:00,
2013-02-28 13:31:00,22.0,14.0,-100.00,North,352,7.0,14.0,70,-99.99,,,-99.99,,2013-02-28 20:31:00,
2013-02-28 13:41:00,22.0,14.0,-100.00,North,352,7.0,14.0,70,-99.99,,,-99.99,,2013-02-28 20:41:00,
2013-02-28 13:52:00,22.0,15.0,-100.00,North,359,8.0,12.0,73,-99.99,,,-99.99,,2013-02-28 20:52:00,
2013-02-28 14:01:00,22.0,16.0,-100.00,North,0,12.0,19.0,77,-99.99,,,-99.99,,2013-02-28 21:01:00,
2013-02-28 14:11:00,22.0,16.0,-100.00,North,0,12.0,19.0,77,-99.99,,,-99.99,,2013-02-28 21:11:00,
2013-02-28 14:22:00,23.0,17.0,-100.00,NNW,348,14.0,21.0,78,-99.99,,,-99.99,,2013-02-28 21:22:00,
2013-02-28 14:31:00,22.0,16.0,-100.00,North,349,13.0,22.0,79,-99.99,,,-99.99,,2013-02-28 21:31:00,
2013-02-28 14:41:00,22.0,16.0,-100.00,North,349,13.0,22.0,79,-99.99,,,-99.99,,2013-02-28 21:41:00,
2013-02-28 14:52:00,22.0,17.0,-100.00,North,349,15.0,26.0,80,-99.99,,,-99.99,,2013-02-28 21:52:00,
2013-02-28 15:01:00,22.0,17.0,-100.00,NNW,348,15.0,31.0,80,-99.99,,,-99.99,,2013-02-28 22:01:00,
2013-02-28 15:11:00,22.0,17.0,-100.00,NNW,348,15.0,31.0,80,-99.99,,,-99.99,,2013-02-28 22:11:00,
2013-02-28 15:21:00,22.0,17.0,-100.00,North,354,13.0,24.0,81,-99.99,,,-99.99,,2013-02-28 22:21:00,
2013-02-28 15:31:00,23.0,17.0,-100.00,North,350,13.0,20.0,79,-99.99,,,-99.99,,2013-02-28 22:31:00,
2013-02-28 15:41:00,23.0,17.0,-100.00,North,350,13.0,20.0,79,-99.99,,,-99.99,,2013-02-28 22:41:00,
2013-02-28 15:52:00,23.0,17.0,-100.00,North,356,12.0,18.0,78,-99.99,,,-99.99,,2013-02-28 22:52:00,
2013-02-28 16:01:00,24.0,18.0,-100.00,North,357,11.0,17.0,77,-99.99,,,-99.99,,2013-02-28 23:01:00,
2013-02-28 16:11:00,24.0,18.0,-100.00,North,357,11.0,17.0,77,-99.99,,,-99.99,,2013-02-28 23:11:00,
2013-02-28 16:21:00,23.0,17.0,-100.00,North,353,11.0,18.0,77,-99.99,,,-99.99,,2013-02-28 23:21:00,
2013-02-28 16:31:00,23.0,17.0,-100.00,North,357,15.0,21.0,79,-99.99,,,-99.99,,2013-02-28 23:31:00,
2013-02-28 16:41:00,23.0,17.0,-100.00,North,357,15.0,21.0,79,-99.99,,,-99.99,,2013-02-28 23:41:00,
2013-02-28 16:52:00,23.0,18.0,-100.00,North,349,15.0,24.0,80,-99.99,,,-99.99,,2013-02-28 23:52:00,
2013-02-28 17:01:00,23.0,18.0,-100.00,NNW,343,12.0,18.0,80,-99.99,,,-99.99,,2013-03-01 00:01:00,
2013-02-28 17:11:00,23.0,18.0,-100.00,NNW,343,12.0,18.0,80,-99.99,,,-99.99,,2013-03-01 00:11:00,
2013-02-28 17:22:00,23.0,18.0,-100.00,NNW,329,13.0,23.0,80,-99.99,,,-99.99,,2013-03-01 00:22:00,
2013-02-28 17:32:00,25.0,19.0,-100.00,NW,321,10.0,18.0,78,-99.99,,,-99.99,,2013-03-01 00:32:00,
2013-02-28 17:41:00,25.0,19.0,-100.00,NW,321,10.0,18.0,78,-99.99,,,-99.99,,2013-03-01 00:41:00,
2013-02-28 17:52:00,23.0,18.0,-100.00,NW,326,13.0,20.0,81,-99.99,,,-99.99,,2013-03-01 00:52:00,
2013-02-28 18:01:00,22.0,18.0,-100.00,NNW,332,14.0,21.0,84,-99.99,,,-99.99,,2013-03-01 01:01:00,
2013-02-28 18:11:00,22.0,18.0,-100.00,NNW,332,14.0,21.0,84,-99.99,,,-99.99,,2013-03-01 01:11:00,
2013-02-28 18:21:00,22.0,18.0,-100.00,NNW,329,13.0,19.0,85,-99.99,,,-99.99,,2013-03-01 01:21:00,
2013-02-28 18:31:00,22.0,18.0,-100.00,NNW,332,16.0,27.0,86,-99.99,,,-99.99,,2013-03-01 01:31:00,
2013-02-28 18:42:00,22.0,18.0,-100.00,NNW,332,16.0,27.0,86,-99.99,,,-99.99,,2013-03-01 01:42:00,
2013-02-28 18:52:00,22.0,18.0,-100.00,NNW,333,15.0,23.0,86,-99.99,,,-99.99,,2013-03-01 01:52:00,
2013-02-28 19:01:00,22.0,18.0,-100.00,NNW,330,13.0,21.0,85,-99.99,,,-99.99,,2013-03-01 02:01:00,
2013-02-28 19:11:00,22.0,18.0,-100.00,NNW,330,13.0,21.0,85,-99.99,,,-99.99,,2013-03-01 02:11:00,
2013-02-28 19:21:00,22.0,18.0,-100.00,NW,323,14.0,21.0,84,-99.99,,,-99.99,,2013-03-01 02:21:00,
2013-02-28 19:31:00,22.0,17.0,-100.00,NW,322,14.0,23.0,82,-99.99,,,-99.99,,2013-03-01 02:31:00,
2013-02-28 19:42:00,22.0,17.0,-100.00,NW,322,14.0,23.0,82,-99.99,,,-99.99,,2013-03-01 02:42:00,
2013-02-28 19:52:00,22.0,17.0,-100.00,NW,316,14.0,22.0,82,-99.99,,,-99.99,,2013-03-01 02:52:00,
2013-02-28 20:01:00,22.0,17.0,-100.00,NW,320,16.0,23.0,82,-99.99,,,-99.99,,2013-03-01 03:01:00,
2013-02-28 20:11:00,22.0,17.0,-100.00,NW,317,15.0,23.0,82,-99.99,,,-99.99,,2013-03-01 03:11:00,
2013-02-28 20:21:00,22.0,17.0,-100.00,NW,317,15.0,23.0,82,-99.99,,,-99.99,,2013-03-01 03:21:00,
2013-02-28 20:32:00,22.0,17.0,-100.00,NW,316,14.0,20.0,81,-99.99,,,-99.99,,2013-03-01 03:32:00,
2013-02-28 20:41:00,22.0,17.0,-100.00,NW,316,14.0,20.0,81,-99.99,,,-99.99,,2013-03-01 03:41:00,
2013-02-28 20:52:00,22.0,18.0,-100.00,NW,317,12.0,19.0,83,-99.99,,,-99.99,,2013-03-01 03:52:00,
2013-02-28 21:01:00,23.0,19.0,-100.00,NW,324,11.0,17.0,85,-99.99,,,-99.99,,2013-03-01 04:01:00,
2013-02-28 21:11:00,23.0,19.0,-100.00,NW,324,11.0,17.0,85,-99.99,,,-99.99,,2013-03-01 04:11:00,
2013-02-28 21:21:00,22.0,18.0,-100.00,NNW,329,9.0,14.0,85,-99.99,,,-99.99,,2013-03-01 04:21:00,
2013-02-28 21:31:00,22.0,18.0,-100.00,NNW,338,11.0,18.0,85,-99.99,,,-99.99,,2013-03-01 04:31:00,
2013-02-28 21:41:00,22.0,18.0,-100.00,NNW,338,11.0,18.0,85,-99.99,,,-99.99,,2013-03-01 04:41:00,
2013-02-28 21:52:00,21.0,17.0,-100.00,NNW,345,8.0,13.0,84,-99.99,,,-99.99,,2013-03-01 04:52:00,
2013-02-28 22:01:00,21.0,17.0,-100.00,NW,324,11.0,17.0,86,-99.99,,,-99.99,,2013-03-01 05:01:00,
2013-02-28 22:11:00,21.0,17.0,-100.00,NW,324,11.0,17.0,86,-99.99,,,-99.99,,2013-03-01 05:11:00,
2013-02-28 22:22:00,22.0,19.0,-100.00,NW,309,11.0,18.0,88,-99.99,,,-99.99,,2013-03-01 05:22:00,
2013-02-28 22:32:00,22.0,20.0,-100.00,NW,326,10.0,16.0,92,-99.99,,,-99.99,,2013-03-01 05:32:00,
2013-02-28 22:42:00,22.0,20.0,-100.00,NW,326,10.0,16.0,92,-99.99,,,-99.99,,2013-03-01 05:42:00,
2013-02-28 22:52:00,22.0,20.0,-100.00,NW,323,10.0,19.0,93,-99.99,,,-99.99,,2013-03-01 05:52:00,
2013-02-28 23:02:00,22.0,21.0,-100.00,NW,322,15.0,26.0,96,-99.99,,,-99.99,,2013-03-01 06:02:00,
2013-02-28 23:11:00,22.0,21.0,-100.00,NW,322,15.0,26.0,96,-99.99,,,-99.99,,2013-03-01 06:11:00,
2013-02-28 23:21:00,23.0,22.0,-100.00,NW,322,14.0,21.0,97,-99.99,,,-99.99,,2013-03-01 06:21:00,
2013-02-28 23:32:00,23.0,23.0,-100.00,NW,314,19.0,28.0,99,-99.99,,,-99.99,,2013-03-01 06:32:00,
2013-02-28 23:42:00,23.0,23.0,-100.00,NW,314,19.0,28.0,99,-99.99,,,-99.99,,2013-03-01 06:42:00,
2013-02-28 23:52:00,23.0,23.0,-100.00,NNW,327,15.0,27.0,99,-99.99,,,-99.99,,2013-03-01 06:52:00,